GFSNGP_500_rhum_063.txt.gz
RH
64 63 74 65 49 67 33 22 12 14 9 12 28 19 19 16 16 14 19 30 31 26 40 47 70 72 68 71 74 88 88 91 74 21 16 21 31 48 51 43 53 74 87 92
30 21 19 19 22 24 22 10 8 10 8 8 11 21 23 24 19 23 25 24 22 22 32 48 81 93 88 61 82 84 88 48 21 17 26 39 49 45 44 66 86 98 95 95
15 17 18 18 15 15 13 13 11 10 9 9 10 16 18 21 23 24 25 22 22 19 35 46 46 43 79 93 79 65 36 17 22 35 47 47 42 52 75 97 99 91 97 98
21 22 20 11 9 10 10 13 16 17 19 25 28 27 25 23 24 23 23 23 22 26 27 18 10 42 31 17 15 14 18 27 40 48 45 44 66 94 97 92 91 94 80 68
21 19 15 10 8 9 15 22 28 31 30 32 34 32 30 28 27 25 28 31 25 12 10 10 8 8 10 12 15 23 35 48 50 43 54 86 99 97 94 87 73 45 29 80
20 22 23 9 17 35 28 23 30 35 44 45 38 36 35 34 37 36 25 12 11 11 9 8 9 10 13 18 28 47 54 49 50 58 87 94 97 92 76 49 18 6 20 15
30 28 43 18 7 8 13 21 36 45 44 43 42 40 38 31 18 12 12 12 10 9 9 10 11 13 19 37 54 56 52 45 59 86 90 92 82 63 26 7 5 5 6 16
68 46 21 9 8 8 14 22 26 33 40 38 35 23 16 15 15 15 13 13 13 13 14 14 18 28 46 56 54 40 37 62 86 88 84 72 46 12 5 5 6 9 18 37
68 42 16 13 11 10 13 18 24 25 19 16 16 16 16 15 16 17 18 18 18 17 18 22 34 52 56 44 33 40 70 85 84 78 62 34 8 5 6 6 9 13 32 46
58 46 27 19 16 15 15 14 14 15 16 16 16 16 17 18 18 19 23 25 24 24 24 39 53 53 37 35 55 84 90 85 73 49 18 6 5 6 6 8 15 24 36 48
48 42 32 25 24 20 19 18 18 18 18 18 18 18 19 21 26 37 41 37 30 30 46 54 45 38 50 76 87 88 81 62 36 10 6 6 6 6 7 10 18 25 34 46
58 64 41 31 34 33 28 24 21 19 20 21 21 22 23 33 52 56 52 38 37 49 50 42 48 71 88 90 86 74 54 30 9 6 6 6 6 6 8 10 17 30 39 43
68 69 52 40 38 36 34 30 29 30 30 28 26 26 33 53 65 60 48 47 55 47 48 65 84 90 91 85 72 54 29 12 7 7 7 7 7 8 7 10 29 34 32 30
80 74 64 54 52 44 42 40 43 51 53 44 35 37 55 71 68 56 55 55 53 65 82 94 97 93 88 72 46 21 9 8 8 8 8 8 9 12 25 34 32 22 17 15
100 84 76 74 63 61 66 70 71 66 58 50 44 56 79 73 69 66 60 65 78 89 99 98 96 90 70 42 19 10 8 9 9 10 10 10 15 28 35 28 18 14 15 18
98 100 99 82 88 99 100 100 90 72 57 54 65 85 84 81 75 77 84 88 98 100 100 99 89 69 39 17 10 9 10 10 10 11 12 18 32 32 25 15 15 15 24 24
99 99 100 100 99 99 99 96 84 72 74 80 91 94 91 98 97 95 98 100 100 100 99 87 62 33 16 10 10 10 11 12 12 13 23 33 32 22 15 15 16 26 21 10
98 100 100 100 99 100 100 97 93 97 97 99 98 98 100 100 100 100 100 100 100 98 86 60 28 13 10 10 11 12 12 13 15 27 38 34 22 16 17 19 27 23 11 10
85 94 95 97 100 100 100 100 100 100 99 99 100 100 99 100 100 100 100 100 99 86 53 26 12 10 11 12 13 13 15 20 36 46 40 27 19 20 21 24 23 12 11 10
98 95 97 100 100 100 100 100 100 100 100 100 100 100 100 100 100 100 100 100 87 52 20 12 11 11 13 14 15 20 28 44 51 48 39 25 22 24 22 22 14 13 12 13
97 100 99 100 100 100 100 100 100 100 98 100 100 100 100 100 100 100 100 98 54 19 12 11 12 14 15 18 26 36 48 54 53 46 31 24 27 24 20 15 14 13 12 12
100 100 100 100 100 100 100 98 93 94 99 100 100 100 100 100 100 100 91 51 16 12 12 14 15 17 23 34 45 49 55 57 55 36 25 29 26 18 16 15 15 13 13 14
100 100 100 100 100 98 90 89 95 98 99 99 100 100 100 100 99 71 24 13 13 13 15 17 20 30 45 59 54 60 62 62 44 27 29 29 16 14 16 17 14 13 16 19
100 100 100 98 92 89 93 98 100 100 100 100 100 100 100 81 39 15 13 13 14 16 18 23 34 50 62 55 59 66 68 53 31 31 32 18 13 15 18 16 14 15 20 28
100 100 99 95 95 97 99 100 100 100 100 100 99 82 37 17 14 14 14 16 18 21 32 54 68 73 68 66 72 76 59 35 34 36 22 13 14 19 20 17 16 19 27 35
98 96 96 98 100 100 100 100 100 100 96 66 36 17 14 15 15 16 18 21 28 46 77 90 79 67 73 77 80 59 38 39 39 25 14 14 16 22 21 18 18 24 34 40
100 100 100 100 100 100 100 100 93 66 45 26 17 15 16 16 17 20 30 43 65 84 88 75 71 79 82 77 49 42 46 43 26 14 14 15 20 24 23 21 24 30 40 44

GFSNGP_500_rhum_066.txt.gz
RH
29 34 62 65 73 58 50 61 34 34 16 11 9 7 9 18 20 20 26 25 23 31 36 35 43 59 74 81 95 92 78 63 91 100 77 52 66 37 26 44 50 47 57 81
44 40 48 72 50 59 30 17 14 12 6 7 10 10 10 12 18 28 26 28 30 29 25 37 55 61 66 76 82 59 67 80 92 65 77 68 28 32 50 51 47 60 76 86
77 87 43 27 29 25 19 19 13 6 7 10 13 13 13 14 20 20 24 24 22 22 23 25 45 53 60 60 19 25 44 43 49 42 20 29 44 55 50 50 52 73 84 81
86 88 46 10 16 16 16 11 8 7 8 15 21 24 25 26 26 27 27 26 28 28 26 27 21 14 12 10 10 10 11 13 16 21 40 55 56 51 44 50 82 86 82 63
46 62 48 10 14 19 14 9 7 14 18 25 28 25 24 28 28 28 30 35 32 30 22 11 12 12 9 9 10 12 14 17 30 52 58 55 44 39 58 87 84 75 50 14
31 30 20 16 18 37 32 10 11 14 21 23 25 24 24 30 33 36 36 35 25 13 13 13 11 11 12 14 15 16 23 38 55 58 45 35 41 80 88 79 71 40 11 6
40 35 32 16 18 43 38 13 7 8 11 18 23 27 29 32 34 29 17 13 14 15 14 16 16 17 18 20 21 28 40 52 48 36 35 63 86 83 79 63 32 11 6 6
50 52 43 43 58 47 18 10 7 7 10 18 24 26 27 24 15 15 14 14 16 18 19 20 25 30 28 27 32 39 47 41 38 53 80 85 83 79 55 30 13 7 7 7
62 44 38 52 64 40 19 14 10 10 12 16 18 15 14 15 14 15 16 17 20 24 31 40 44 40 36 41 46 46 41 48 75 86 87 85 73 53 32 13 8 8 8 8
70 54 49 65 70 55 29 19 16 14 15 16 16 16 16 16 17 18 20 21 22 27 37 48 50 48 46 47 44 47 66 82 87 90 87 74 55 31 16 8 8 9 9 9
94 76 72 61 61 49 38 27 24 21 20 21 21 21 21 21 22 24 24 25 28 36 49 55 57 54 48 48 58 75 86 92 94 89 75 53 24 11 9 10 10 10 11 12
97 100 98 99 75 54 48 37 30 30 31 32 32 32 33 34 37 37 37 36 42 52 63 66 63 56 61 70 80 92 96 97 92 75 49 24 12 9 10 10 11 12 16 24
87 92 100 96 90 73 72 60 47 41 38 37 38 41 46 51 53 48 45 48 60 71 74 70 71 81 84 89 94 96 94 89 75 49 22 12 10 10 10 10 12 15 24 28
61 78 96 92 92 90 76 70 65 61 56 50 44 48 58 69 63 55 56 71 79 82 83 89 89 90 94 95 95 91 88 77 47 21 12 10 11 12 12 12 12 15 30 30
88 96 96 100 97 97 88 74 70 72 75 79 78 85 86 79 72 73 82 89 94 97 95 90 91 94 97 98 94 94 75 41 18 10 10 12 12 13 14 18 28 35 35 21
90 97 96 89 91 91 96 98 100 90 89 100 100 98 98 96 94 97 99 100 100 96 91 94 98 100 100 98 99 86 45 19 10 11 12 13 14 16 23 32 41 38 24 18
90 94 100 100 99 96 100 100 100 100 100 100 98 98 100 100 100 100 100 100 98 100 100 100 100 100 100 99 98 58 16 11 11 13 14 15 18 26 34 43 41 26 19 19
100 100 100 100 100 99 100 100 100 99 100 100 100 96 100 100 100 100 100 100 100 100 100 100 100 100 100 99 67 23 12 12 14 15 17 21 31 36 44 45 32 20 21 11
92 86 83 85 85 85 82 87 92 100 100 100 100 100 100 100 100 100 100 100 100 100 100 100 100 100 100 78 30 14 13 15 16 19 24 38 40 45 49 41 24 24 16 9
61 63 67 74 91 99 95 100 100 100 100 100 98 99 100 100 100 100 100 100 100 100 100 100 100 100 75 24 14 14 16 18 22 31 47 49 48 55 51 29 26 24 10 10
91 90 95 95 94 93 100 100 100 100 100 97 100 100 100 99 100 100 100 100 100 100 100 100 95 47 18 14 14 16 18 25 41 60 58 55 63 60 39 28 29 17 10 12
95 90 89 94 97 100 100 100 97 95 99 100 99 98 99 100 100 100 100 100 100 100 99 75 30 17 15 16 18 23 31 53 72 59 54 65 64 45 31 33 25 12 12 15
99 100 100 100 100 100 98 98 100 100 97 95 98 100 100 100 100 100 100 100 100 85 42 23 18 16 17 20 29 42 65 82 72 64 70 68 47 34 36 32 16 12 14 19
100 100 95 95 97 100 100 100 100 100 100 100 100 100 100 100 100 100 100 93 69 45 25 18 17 20 27 42 59 74 81 85 84 79 72 45 38 40 35 18 14 15 17 22
99 100 100 100 100 100 100 100 100 100 100 100 100 100 100 100 100 98 93 74 46 24 18 19 25 39 57 73 81 84 92 92 86 62 44 44 46 34 19 17 17 19 24 28
100 100 100 100 100 100 100 100 100 100 100 100 100 100 100 100 98 90 63 35 22 18 22 36 52 63 77 87 90 92 85 69 51 46 48 46 28 21 22 24 24 25 30 31
100 100 100 100 100 100 100 100 100 100 100 100 100 100 99 94 76 45 25 19 23 34 44 52 66 78 83 87 81 63 49 48 51 50 35 25 26 32 39 38 32 32 34 33

GFSNGP_500_rhum_072.txt.gz
RH
22 33 40 31 31 33 34 31 36 31 52 64 58 46 30 14 8 6 6 7 8 7 8 15 17 16 18 22 34 54 53 73 95 97 90 95 96 33 60 98 99 57 79 93
22 23 33 31 29 30 28 28 28 46 38 51 26 14 9 6 7 8 11 15 14 12 10 12 21 20 20 32 62 61 69 98 78 29 36 32 14 11 13 34 14 73 25 33
24 27 32 21 20 33 56 49 27 27 35 39 22 11 6 6 9 13 18 22 25 25 25 24 25 31 63 38 34 57 54 59 33 14 12 13 16 18 21 22 24 29 36 43
37 35 27 21 30 50 60 33 22 28 29 21 15 10 7 8 16 20 20 22 22 24 27 30 35 36 45 60 58 53 34 15 14 16 18 24 31 34 35 38 41 41 42 44
51 37 35 22 22 40 61 38 24 21 18 15 13 10 8 9 12 14 20 24 23 25 28 33 39 43 42 36 18 15 15 16 18 23 29 35 37 43 47 50 47 44 54 68
78 56 29 24 35 41 43 22 49 40 27 27 23 19 9 6 7 10 19 27 30 29 31 33 27 18 16 16 16 17 18 21 27 32 38 42 48 55 56 52 53 66 77 85
80 52 37 23 36 43 36 34 28 22 22 24 24 16 9 7 7 9 16 25 29 28 17 14 14 14 15 16 18 21 24 27 33 39 46 54 59 63 60 67 76 81 85 83
84 60 48 35 42 42 52 46 35 25 25 39 30 16 10 8 9 12 17 16 14 14 15 15 16 17 19 22 24 27 33 37 42 47 54 66 70 72 79 80 78 81 82 81
86 82 70 53 54 46 48 48 47 44 47 58 42 22 14 13 13 12 13 15 15 17 18 19 21 23 27 32 38 40 41 46 51 63 75 81 86 86 80 80 81 80 80 77
96 88 85 80 71 57 55 61 45 38 35 55 53 45 23 19 19 19 19 20 22 23 25 29 34 38 37 37 44 55 58 62 74 89 91 90 85 82 82 83 82 84 83 81
89 100 100 98 96 72 58 72 84 53 34 40 49 51 43 30 26 29 31 32 32 32 34 37 39 40 44 61 69 70 76 88 98 95 90 86 82 85 87 88 86 83 84 83
75 85 95 95 94 90 62 82 96 97 69 75 85 63 57 52 49 49 48 46 48 52 54 59 64 76 85 84 89 96 100 100 93 89 90 89 85 84 96 92 87 89 87 80
63 79 96 94 100 93 70 98 91 70 71 82 90 75 71 74 74 74 74 74 71 70 87 79 75 97 100 97 80 86 88 88 88 89 88 84 89 98 95 91 98 94 84 68
74 90 95 99 97 91 96 100 89 68 62 77 93 88 91 89 95 91 84 88 96 90 93 90 88 100 100 96 99 93 92 91 91 90 88 92 97 97 99 100 97 90 77 56
85 94 93 95 99 93 96 98 95 90 69 89 100 93 96 98 98 94 80 84 98 100 100 100 100 100 100 100 99 100 100 98 94 89 89 94 99 100 100 99 95 86 72 50
93 96 98 97 93 94 100 91 92 87 81 95 95 100 97 93 98 100 100 99 99 100 100 100 100 100 100 98 98 100 100 99 100 98 99 100 100 100 100 100 93 80 63 46
92 88 89 94 100 93 94 78 79 84 93 100 100 93 93 100 100 100 100 100 100 100 100 100 100 100 100 100 100 100 100 100 99 100 100 100 100 100 100 93 87 73 55 37
81 84 93 96 96 94 90 86 90 95 96 99 100 100 100 99 99 93 86 91 100 100 100 100 100 100 100 100 100 100 100 100 100 100 100 100 100 97 93 89 79 56 43 42
83 94 97 92 82 83 85 85 87 90 100 100 100 79 93 83 92 98 98 100 100 100 100 100 100 100 100 100 100 100 100 100 100 100 100 100 97 96 88 69 49 44 42 42
100 98 95 86 73 69 75 80 83 79 75 74 79 98 100 100 100 100 100 100 100 100 100 100 100 100 100 100 100 100 100 100 100 100 100 99 95 76 53 50 52 43 44 54
89 93 85 65 58 61 67 74 77 80 88 100 100 100 100 100 100 100 100 100 100 100 100 100 100 100 100 100 100 100 100 100 100 100 97 78 52 46 53 50 47 52 56 48
62 60 64 67 71 71 74 82 94 100 100 100 99 99 100 100 100 100 100 100 100 99 97 98 100 100 100 100 100 100 100 100 92 66 40 37 41 43 44 48 51 45 41 42
70 71 83 84 81 80 91 100 100 100 100 100 100 100 100 100 100 100 98 94 94 99 100 100 100 100 100 100 100 98 82 48 27 28 29 26 28 32 36 37 38 40 40 37
92 93 85 78 81 89 100 100 100 100 100 100 100 99 100 99 97 94 96 100 100 100 100 100 100 100 100 88 61 32 20 19 18 19 22 26 30 34 36 37 35 34 36 42
63 68 76 85 91 92 96 98 94 90 92 96 99 100 100 100 100 100 100 100 100 100 100 98 86 61 34 19 16 15 16 18 22 25 27 28 27 25 26 30 36 43 56 65
86 97 100 100 100 99 95 94 97 100 100 100 100 100 100 100 100 100 100 100 96 80 56 31 17 13 13 13 15 17 18 18 16 16 17 19 22 26 33 41 50 60 69 76
99 98 96 98 100 100 100 100 100 100 100 100 100 100 100 100 98 92 76 49 25 15 12 11 11 12 13 12 12 12 13 15 16 18 20 24 30 37 44 52 63 71 76 85

GFSNGP_500_rhum_075.txt.gz
RH
36 91 100 98 64 25 40 52 80 56 98 90 100 100 78 93 94 38 16 8 6 6 8 10 10 8 11 13 17 21 42 50 62 65 71 88 98 89 30 37 30 17 13 14
39 44 96 92 62 41 86 94 36 54 88 98 100 84 42 27 19 12 6 6 8 11 15 18 20 18 15 14 21 36 38 69 80 100 100 89 71 23 31 21 15 18 24 29
40 54 72 86 16 25 28 40 30 34 61 100 100 87 29 14 11 6 7 8 11 17 22 23 24 23 27 28 36 77 100 96 97 92 82 52 15 14 17 20 28 37 39 42
56 44 38 29 28 28 24 30 40 65 24 36 55 36 35 18 10 7 8 16 21 22 23 22 19 22 27 32 44 76 91 89 82 59 23 16 17 20 25 34 38 43 49 55
60 46 42 37 27 28 40 40 38 53 33 39 29 26 19 14 11 9 9 9 13 19 24 24 23 24 31 49 56 45 36 27 16 16 17 19 23 26 33 40 46 52 62 68
92 72 55 42 33 36 52 46 47 67 58 16 12 13 17 15 16 12 7 7 8 12 21 27 29 30 29 24 16 15 16 16 17 19 22 27 32 38 44 53 59 69 77 85
92 95 78 60 43 39 45 40 70 45 30 23 21 16 22 22 20 11 8 7 8 11 17 25 30 29 16 15 15 16 18 20 22 26 31 37 44 49 54 60 77 90 95 89
93 96 89 80 76 61 58 47 43 36 35 33 26 20 18 23 29 21 14 9 8 12 16 15 14 15 15 17 18 20 22 27 34 38 41 47 56 61 70 89 93 86 86 84
99 98 96 98 99 93 67 58 44 42 37 41 41 32 28 41 44 31 20 13 12 12 14 16 17 19 21 24 28 32 34 35 39 46 62 68 74 85 91 85 82 78 80 86
95 91 99 97 99 98 78 66 64 51 44 44 38 37 38 44 53 47 35 23 19 19 21 23 26 29 31 34 39 46 50 55 65 76 83 92 92 85 76 83 82 82 86 86
88 92 100 91 96 100 96 89 79 60 50 55 57 59 52 45 44 51 50 42 33 27 27 31 38 44 48 52 69 70 66 72 85 97 95 78 79 81 87 93 93 89 86 87
88 100 92 99 91 95 98 100 95 84 65 59 66 82 87 80 73 90 88 59 55 61 64 69 74 72 68 69 72 87 95 96 97 100 100 100 97 96 93 95 92 90 93 94
91 91 99 95 95 93 94 100 96 90 73 77 87 75 65 70 85 92 91 79 83 86 94 87 71 76 91 100 100 100 100 100 100 100 100 100 92 94 94 95 99 91 95 96
79 64 63 78 75 69 81 96 100 92 87 92 91 94 88 74 70 82 90 93 97 99 94 100 100 94 90 97 96 100 100 100 100 100 100 100 100 100 100 100 95 90 88 97
79 81 74 71 73 74 78 86 86 86 83 87 94 95 91 92 83 86 96 100 93 93 97 100 100 100 96 100 100 100 100 100 100 100 100 100 100 100 100 100 100 100 100 99
58 68 73 73 75 73 80 88 87 84 85 84 84 86 87 88 92 93 99 88 87 99 100 100 100 98 100 100 100 100 100 100 100 100 100 100 100 100 100 100 100 100 100 99
68 70 73 73 81 84 81 86 95 91 86 92 88 82 90 100 90 93 97 100 100 100 100 100 100 100 100 100 100 100 100 100 100 100 100 100 100 100 100 100 100 100 100 98
62 69 71 74 76 72 71 93 99 94 98 100 93 93 98 100 100 100 100 100 100 100 100 100 100 100 100 100 100 100 100 100 100 100 100 100 100 100 100 100 100 100 95 66
48 64 72 73 73 77 86 91 97 99 99 97 99 100 100 99 94 97 100 100 79 90 100 100 100 100 100 100 100 100 100 100 100 100 100 100 100 100 100 100 94 61 28 23
40 63 74 74 85 100 100 98 100 100 96 89 89 91 83 81 78 77 83 93 100 100 100 100 100 100 100 100 100 100 100 100 100 100 100 100 100 100 90 52 21 18 19 20
70 91 83 87 100 100 100 100 98 84 82 84 83 87 92 96 100 100 100 100 100 100 100 100 100 100 100 100 100 100 100 100 98 95 95 96 81 41 17 14 15 17 19 22
98 100 100 100 100 100 91 83 82 80 79 84 88 95 100 100 100 100 100 100 100 100 100 100 100 100 100 100 99 95 93 92 93 91 63 27 14 13 13 14 15 16 15 15
100 100 99 87 85 84 91 92 86 84 89 99 100 100 100 100 100 100 100 100 100 100 100 100 100 98 96 94 93 92 90 72 36 16 12 12 12 12 12 13 14 15 16 18
85 94 97 97 98 95 91 82 79 81 86 92 95 98 99 100 100 100 100 100 100 99 95 96 99 97 93 88 75 46 19 13 11 10 10 10 11 12 13 14 15 16 18 21
98 98 94 83 73 68 71 79 86 94 99 100 100 100 100 100 100 100 100 100 99 97 93 92 85 71 50 26 13 11 10 9 10 11 14 15 14 13 13 14 16 19 24 33
83 87 91 92 92 96 99 100 100 100 99 98 98 99 99 100 98 96 95 93 89 82 69 50 28 14 11 10 9 9 11 15 16 17 17 16 14 14 14 16 18 24 35 50
96 95 90 88 90 92 90 90 93 96 97 96 94 94 95 93 90 86 78 66 45 23 14 12 10 9 9 11 14 17 17 17 18 18 16 14 14 14 16 19 25 37 51 60

GFSNGP_500_rhum_078.txt.gz
RH
98 76 100 75 45 33 24 38 60 52 86 78 99 98 79 84 83 77 99 61 18 14 7 5 5 8 12 16 21 43 57 64 51 69 80 96 100 93 100 100 93 40 39 21
99 79 70 99 100 96 40 23 42 86 75 85 70 91 85 96 79 52 43 39 11 7 7 7 9 14 20 26 45 65 54 56 70 85 72 89 99 100 96 79 37 31 21 22
63 83 79 84 97 100 100 84 78 88 91 89 100 100 98 93 70 26 18 10 9 8 8 8 13 20 31 29 30 28 26 38 54 79 99 97 96 88 65 30 23 21 25 28
100 76 60 60 60 72 78 40 40 61 69 58 61 71 70 68 31 33 15 12 8 7 8 12 19 23 21 21 19 19 36 61 74 88 85 64 43 20 20 21 22 25 28 34
88 90 65 58 62 53 41 30 29 25 31 60 80 69 57 32 31 33 30 16 10 10 8 8 8 9 13 18 20 22 31 31 29 27 26 19 17 18 19 22 25 30 41 47
100 95 84 62 55 47 41 35 38 37 41 39 36 28 20 15 14 15 16 16 16 15 11 7 6 8 10 16 22 27 27 20 15 16 16 17 19 22 26 32 42 48 56 67
100 95 85 87 89 72 57 45 68 66 75 63 33 25 24 20 13 10 17 22 20 17 15 10 8 10 13 19 22 18 14 15 16 17 20 23 28 36 46 51 53 70 79 91
100 94 87 99 96 89 76 71 60 72 67 54 40 34 30 27 28 20 15 17 29 29 25 17 13 10 10 12 13 15 16 18 20 25 30 34 37 43 53 66 84 88 99 96
100 96 94 99 97 98 95 95 84 67 59 46 37 36 37 36 41 38 34 45 51 46 39 26 20 16 14 16 17 19 22 25 29 31 39 58 69 78 78 84 100 100 100 100
97 90 100 100 95 99 97 99 89 73 66 52 42 44 40 36 45 42 39 39 42 53 51 50 44 35 26 24 25 31 42 55 61 63 62 69 84 96 100 100 100 100 100 100
94 99 98 97 98 98 98 90 89 86 80 70 60 62 56 44 45 55 72 81 55 44 64 84 83 52 48 59 71 82 92 87 86 89 95 99 100 100 100 100 100 100 100 100
84 94 98 96 97 91 91 82 99 98 97 98 95 91 81 70 65 58 73 76 84 75 74 90 92 79 91 95 94 99 100 100 100 99 100 100 100 100 100 100 100 100 100 100
84 85 86 95 98 91 81 80 87 94 100 100 96 84 93 88 77 75 84 59 70 70 67 84 98 100 97 92 94 100 100 99 98 100 100 100 100 100 100 100 100 100 100 100
70 66 71 95 79 84 88 85 85 82 88 91 90 93 92 83 100 96 90 89 89 97 100 100 100 98 95 91 97 100 100 100 100 100 100 100 100 100 100 100 100 100 100 100
59 70 68 73 80 86 69 65 68 68 64 65 81 86 78 84 90 94 96 96 100 100 100 96 91 94 94 99 100 100 100 100 100 100 100 100 100 100 100 100 100 100 100 96
60 62 67 71 67 73 70 67 69 71 72 82 92 92 89 89 89 95 99 99 100 98 92 96 100 100 100 100 100 100 100 100 100 100 100 100 100 100 100 100 100 100 100 100
47 50 49 49 51 53 61 70 77 86 96 99 92 97 95 100 100 100 100 100 100 100 100 100 100 100 100 100 100 100 100 100 100 100 100 100 100 100 100 100 100 100 100 100
41 45 52 57 67 73 75 73 75 84 81 82 95 100 100 100 100 100 100 100 100 100 100 100 100 100 100 100 100 100 100 100 100 100 100 100 100 100 100 100 100 100 100 95
29 27 24 26 46 60 68 75 78 76 84 92 98 100 100 100 99 97 94 91 88 89 92 88 87 91 97 99 98 100 100 100 100 100 100 100 100 100 100 100 99 90 68 33
22 21 22 24 31 43 62 73 76 97 100 100 100 99 98 97 91 86 87 91 96 97 99 100 100 100 100 100 100 100 100 100 100 100 100 100 100 100 96 86 59 27 12 11
21 20 20 20 25 38 76 86 88 100 100 100 100 99 92 92 94 94 96 99 100 100 100 100 100 100 100 100 100 100 100 100 100 97 95 95 91 71 42 19 11 10 10 11
23 37 72 84 85 97 100 100 100 100 100 100 97 98 94 90 93 96 100 100 100 100 100 100 100 100 100 100 100 97 91 90 90 85 69 46 24 13 10 10 10 13 16 17
100 94 95 98 100 100 100 100 100 100 98 100 98 92 86 92 100 100 100 100 100 100 100 100 100 100 95 91 89 84 77 66 48 26 14 11 10 9 11 14 16 16 16 19
100 100 100 100 100 100 100 99 100 100 100 88 83 90 97 100 100 100 100 100 100 100 98 95 93 86 77 70 63 52 32 16 12 10 9 10 12 14 13 11 13 17 19 17
97 87 77 88 98 100 100 99 92 90 94 96 92 93 99 100 100 100 100 100 94 86 82 74 69 61 50 34 18 11 10 9 9 10 11 11 9 9 12 17 19 16 13 12
87 90 95 98 100 100 100 100 94 90 90 96 100 100 100 100 99 93 88 83 75 68 62 53 40 21 11 10 9 8 10 10 9 8 8 8 12 16 17 14 12 11 12 14
100 100 96 91 89 92 92 92 93 96 97 99 99 98 95 88 82 77 71 63 55 42 21 11 10 9 8 9 9 9 8 7 8 9 12 14 14 11 10 10 10 12 18 26

GFSNGP_500_rhum_081.txt.gz
RH
92 86 95 97 78 73 58 28 88 77 97 80 86 93 95 73 80 59 56 83 54 17 10 11 8 6 6 8 33 32 37 59 79 68 80 87 82 94 96 98 96 99 95 88
100 96 94 98 86 89 68 64 78 86 76 80 79 92 89 100 90 78 69 72 52 23 18 6 9 6 7 10 14 43 49 42 40 53 67 64 89 96 100 100 100 98 74 21
97 99 99 90 98 71 72 99 69 55 43 64 94 90 77 93 57 73 76 65 51 31 17 12 12 6 9 21 40 26 31 40 38 42 46 56 74 69 79 80 45 23 18 31
97 100 89 69 77 95 99 89 100 100 78 74 96 76 72 79 96 83 42 39 24 16 15 11 9 8 11 15 22 21 18 15 20 24 32 33 27 27 25 21 19 29 28 23
100 95 78 71 59 73 100 88 92 78 50 57 61 65 39 46 39 29 39 29 26 23 29 19 11 11 15 11 8 15 7 8 14 16 22 26 22 17 17 17 18 19 22 30
99 94 87 74 66 60 83 77 75 53 63 45 66 61 40 27 20 33 27 15 26 28 16 19 20 19 14 12 13 10 9 10 13 17 18 14 14 15 17 19 22 29 37 42
100 83 86 80 96 91 71 63 76 68 47 37 34 34 34 34 33 27 26 17 12 10 15 21 17 17 25 24 18 13 10 11 11 12 14 15 16 19 23 30 38 45 60 71
100 85 85 90 98 91 83 78 91 85 82 74 58 53 49 40 32 32 31 33 33 25 16 17 30 38 39 34 25 20 16 14 15 16 18 22 28 34 40 50 64 74 76 76
98 74 83 100 99 96 95 94 91 85 73 65 65 70 58 51 43 35 34 35 33 34 40 41 46 50 50 50 50 55 44 31 26 27 33 46 69 81 83 82 86 92 100 98
96 100 100 99 100 98 97 99 99 88 82 82 76 66 60 54 44 37 40 46 39 47 50 56 69 62 44 45 69 88 86 54 58 80 84 87 96 100 100 100 100 100 100 100
100 100 96 92 95 97 97 94 96 100 94 92 96 93 87 83 74 68 68 69 63 51 58 61 70 73 79 79 84 99 100 88 90 91 94 95 98 100 100 92 89 92 99 100
100 100 98 99 93 96 98 99 100 99 100 96 84 87 96 97 84 78 78 74 72 72 64 67 73 67 84 84 83 87 95 97 98 100 100 100 100 100 99 97 99 100 100 100
100 96 94 92 99 96 98 99 98 96 97 87 86 85 84 92 97 95 92 85 87 92 96 96 98 99 98 98 86 98 100 100 100 100 100 100 100 100 100 100 100 100 100 100
96 88 79 83 94 97 90 89 92 95 98 98 97 96 98 90 86 84 77 84 90 95 100 98 99 100 100 99 100 99 100 100 100 100 99 100 100 100 100 100 100 100 100 100
87 77 75 75 86 86 92 92 88 88 87 83 85 82 70 69 74 78 81 90 92 92 93 93 100 100 100 100 100 100 100 100 100 100 100 100 100 100 100 100 100 100 100 100
75 70 64 62 64 66 67 72 90 98 83 79 75 73 77 84 89 94 91 97 94 100 100 100 100 99 100 100 100 100 100 100 100 100 100 100 100 100 100 100 100 100 100 100
55 49 53 61 68 67 67 78 85 85 86 81 79 85 93 95 88 84 87 96 100 100 100 100 100 100 100 100 100 98 100 100 100 100 100 100 100 100 100 100 100 100 100 100
55 50 48 53 52 51 50 55 68 76 79 81 80 79 82 79 90 100 100 100 100 100 100 100 100 100 96 100 100 100 100 100 100 100 100 100 100 100 100 100 100 100 100 98
48 40 46 46 43 44 50 47 54 73 76 76 78 76 77 91 100 100 100 100 99 100 100 99 97 95 97 100 100 99 99 100 100 100 100 100 100 98 97 96 91 82 66 43
49 43 37 32 31 30 25 19 20 28 27 35 63 84 100 100 100 100 100 100 99 100 100 100 100 100 100 99 100 100 100 100 99 95 91 89 89 83 72 58 42 27 15 10
36 28 24 24 23 20 17 18 19 20 31 71 98 97 100 100 100 100 100 100 100 98 90 100 100 98 98 100 100 100 95 91 88 82 73 64 54 39 24 14 10 9 9 9
10 9 16 20 21 22 22 45 82 87 98 100 100 100 100 100 100 100 99 92 87 89 95 99 100 100 100 98 94 89 81 71 62 52 38 23 13 8 8 8 8 8 9 9
6 9 18 29 44 86 100 100 100 100 100 100 100 100 100 100 100 94 90 92 98 100 100 100 98 95 91 81 72 64 55 42 27 14 8 7 7 7 8 8 7 7 7 8
21 29 92 100 100 100 100 100 100 100 100 100 100 100 100 98 97 96 100 100 100 98 96 92 82 73 68 60 49 33 18 9 7 7 7 7 8 7 7 7 8 9 12 15
98 100 100 100 100 100 100 100 100 100 100 100 99 98 99 100 100 98 92 93 93 86 78 73 66 56 41 26 12 7 7 7 7 8 7 7 8 8 8 10 12 12 10 9
100 100 100 100 100 100 100 99 100 99 100 100 100 98 93 89 90 92 91 85 79 73 67 58 44 25 10 7 7 7 8 8 7 7 9 9 9 10 12 11 8 8 7 6
100 100 100 100 100 100 100 100 100 100 100 94 91 91 90 89 87 84 80 75 66 55 36 19 9 8 7 7 8 8 7 8 10 10 9 11 12 10 8 8 6 6 8 15

GFSNGP_500_rhum_084.txt.gz
RH
56 91 100 100 93 86 91 92 61 36 32 33 63 92 98 92 95 100 90 76 54 55 51 55 19 14 10 5 6 7 8 15 48 63 70 77 85 90 66 58 80 75 83 82
60 66 88 92 98 95 93 97 93 77 35 63 83 71 68 78 97 97 81 62 36 54 52 32 18 9 6 6 6 7 11 34 44 34 37 40 49 43 35 49 52 48 53 74
67 68 100 98 86 83 96 88 91 83 56 78 71 92 75 82 74 49 61 46 28 31 42 43 16 9 16 18 11 9 28 37 38 26 28 20 20 22 22 33 33 22 21 17
57 57 90 58 85 87 100 99 95 70 86 73 68 38 59 64 63 58 48 32 50 52 39 31 20 14 19 17 20 28 37 35 20 19 15 9 11 12 14 17 18 15 15 20
90 60 39 52 100 94 97 97 91 89 98 86 99 90 76 58 59 56 45 45 47 38 29 25 21 21 28 24 22 27 23 23 34 22 11 10 11 12 11 12 12 15 16 16
99 74 43 49 98 100 98 95 98 99 99 78 92 100 82 56 39 35 34 42 48 40 22 21 28 30 24 17 22 19 20 28 26 20 17 14 11 11 11 13 17 19 23 28
94 90 68 79 88 100 96 91 100 97 97 83 95 100 99 74 35 28 28 36 33 30 26 18 14 12 12 19 16 20 30 34 36 31 26 23 19 17 18 22 26 33 35 47
99 98 81 100 100 94 86 95 100 95 86 99 99 81 67 54 44 36 38 42 36 34 34 35 36 36 30 26 32 40 45 47 46 48 61 60 39 29 29 33 43 70 90 95
86 93 100 100 97 93 100 100 98 93 98 92 95 80 66 55 51 44 47 46 46 40 37 42 42 40 43 50 59 66 61 50 53 67 87 91 77 54 56 76 94 96 100 100
82 89 92 100 95 99 98 98 96 97 100 100 100 82 70 65 62 60 58 61 62 58 48 55 62 56 55 66 69 85 100 97 95 94 89 92 99 95 94 100 100 100 100 100
92 100 95 94 92 83 100 99 98 96 99 100 99 96 89 87 86 84 88 91 87 80 77 82 80 76 76 77 75 81 84 85 91 95 96 100 100 100 100 100 100 99 96 96
93 100 89 100 96 99 100 100 100 98 92 90 90 99 98 97 94 92 82 84 88 85 85 83 84 85 90 92 93 100 100 100 99 99 97 100 100 100 99 98 99 100 100 100
43 91 99 100 99 100 98 97 99 98 100 100 99 100 100 100 97 100 100 100 100 96 94 84 79 80 81 80 92 98 100 100 100 99 98 96 96 100 100 100 100 100 100 100
57 65 80 100 99 100 99 99 98 99 100 99 98 98 98 100 100 99 100 99 88 73 74 81 86 88 88 87 87 85 83 86 97 100 100 100 100 100 100 100 100 100 100 100
44 62 89 100 100 99 100 99 94 97 94 89 92 98 100 100 98 99 90 76 76 78 84 85 87 91 88 85 84 89 96 99 100 98 98 100 98 97 99 100 100 100 100 100
60 68 82 98 99 100 100 100 99 100 99 99 98 96 98 97 86 79 79 86 91 85 81 86 86 86 88 96 99 100 100 100 100 100 100 100 100 100 100 99 100 100 98 97
62 66 83 95 97 99 99 96 83 82 80 79 84 89 87 86 80 80 80 79 80 83 96 92 90 98 100 100 100 100 100 100 100 100 98 92 91 91 92 96 94 92 93 92
87 77 84 87 86 96 82 76 66 59 52 53 59 68 76 79 80 79 77 76 91 100 100 100 100 100 99 100 100 100 100 95 88 88 90 92 96 96 94 92 90 81 72 63
58 60 76 78 75 64 58 56 52 44 50 58 49 51 57 55 46 67 76 99 100 100 100 100 99 99 100 100 100 94 84 87 93 96 94 90 87 82 75 67 60 48 30 15
69 74 78 75 69 65 78 71 53 35 31 23 19 21 22 21 25 66 93 100 100 100 100 100 100 100 100 99 95 92 90 91 90 85 78 71 65 60 50 32 15 8 7 7
100 76 88 86 76 73 74 40 25 23 20 19 19 26 36 60 100 100 100 100 100 100 100 100 100 100 98 91 87 88 86 80 75 69 62 54 41 23 11 7 7 7 7 7
96 77 79 81 51 37 25 16 18 22 29 75 100 100 100 100 100 100 100 100 100 100 100 100 96 89 86 86 82 78 73 68 61 51 37 19 9 6 6 6 7 7 7 8
79 73 78 53 33 32 15 17 49 83 98 100 100 100 100 100 100 100 100 100 100 100 96 89 86 82 79 74 69 65 59 47 29 12 7 6 6 6 7 7 9 10 10 10
72 51 38 55 36 13 28 62 95 100 100 100 100 100 100 100 100 100 100 98 93 91 86 82 79 75 70 64 56 40 21 9 7 6 6 7 8 9 10 9 9 10 11 12
52 52 38 15 32 88 100 100 100 100 100 100 100 100 100 100 100 98 96 94 89 84 81 77 72 66 55 36 17 9 7 7 7 8 9 10 9 8 9 11 12 10 10 10
26 35 53 96 100 100 100 100 100 100 100 100 100 100 100 100 98 94 90 84 81 76 73 68 58 40 18 9 8 8 8 9 10 9 8 8 10 12 11 11 12 11 12 15
99 100 100 100 100 100 100 100 100 100 100 100 100 99 98 95 90 86 83 80 75 70 62 41 18 10 9 8 8 9 10 9 8 8 11 14 12 12 14 14 14 16 20 24

GFSNGP_500_rhum_087.txt.gz
RH
22 36 83 99 100 97 84 83 75 55 55 40 77 88 43 52 99 100 100 94 86 56 57 52 56 34 34 18 13 7 5 6 7 8 13 47 62 61 72 79 85 74 45 74
27 46 87 100 96 96 89 82 81 80 62 62 54 49 33 45 85 100 93 95 83 66 48 60 68 59 25 16 12 8 6 7 8 21 36 44 45 44 60 51 34 53 58 51
49 70 91 96 63 85 83 83 84 90 75 68 67 41 44 67 76 85 83 68 63 44 38 50 47 47 28 19 10 11 17 19 22 36 46 46 44 42 41 24 47 36 35 26
93 97 93 51 76 86 93 91 92 91 91 93 89 56 27 53 89 88 61 51 60 50 30 42 35 39 33 29 14 14 21 37 46 46 45 31 42 39 21 20 14 11 11 15
100 95 66 56 62 73 67 54 99 96 88 97 93 71 44 29 52 35 33 53 65 66 34 41 35 20 18 19 15 16 30 38 35 37 39 37 32 26 23 21 17 13 12 12
100 89 55 57 66 81 89 70 97 98 100 99 92 92 86 79 54 59 50 59 47 43 42 46 34 28 17 15 19 22 26 25 26 31 25 21 33 37 34 30 30 30 29 23
100 100 88 66 77 71 72 76 100 95 99 97 99 91 98 100 91 82 62 56 39 36 37 36 33 30 28 24 28 31 32 30 18 15 24 37 43 44 43 44 65 68 68 53
100 98 99 90 80 70 68 100 100 79 97 98 98 97 94 100 100 98 68 48 35 40 57 45 44 39 34 36 38 39 37 37 39 47 56 60 56 51 46 48 61 72 83 80
97 100 90 88 72 79 83 94 97 97 97 97 97 96 99 99 100 98 92 88 92 94 70 50 54 54 48 45 48 54 48 45 50 50 55 68 81 82 81 84 86 90 95 100
98 100 100 100 94 98 100 99 100 95 100 100 99 98 91 95 99 97 96 83 77 71 72 86 84 82 81 76 74 78 74 71 68 68 69 72 79 85 88 94 96 98 91 86
99 100 100 94 93 95 99 100 98 100 100 99 93 100 96 100 100 95 86 90 94 98 97 95 96 96 88 86 84 83 86 84 84 89 90 96 100 100 100 100 99 97 98 100
94 100 92 100 94 100 97 92 100 99 100 98 100 99 99 99 95 95 100 100 100 98 98 98 95 87 88 91 93 89 79 75 81 85 95 100 99 99 100 100 100 100 100 100
87 100 82 92 94 100 100 100 99 96 82 88 98 84 98 100 99 100 97 86 84 99 100 93 89 98 91 81 76 89 98 100 100 100 100 100 100 100 100 100 100 96 96 100
74 84 66 72 96 99 100 100 100 100 98 94 98 99 99 100 100 99 100 96 100 100 98 94 98 86 76 83 89 87 90 99 100 99 95 91 93 95 96 96 98 100 100 100
62 62 65 55 99 96 100 100 100 99 100 100 98 99 100 100 100 99 100 99 95 95 93 89 85 83 85 82 80 85 82 81 80 78 79 84 94 99 98 100 100 100 97 94
69 54 59 49 67 100 99 100 99 98 99 98 100 100 100 99 100 100 98 97 90 86 81 77 78 80 81 93 88 82 78 84 87 83 90 95 98 97 96 87 83 86 84 84
64 53 42 36 48 82 99 99 98 99 98 99 99 99 100 95 91 88 85 80 77 78 78 79 80 82 100 92 89 100 98 91 90 90 96 98 92 85 82 80 76 76 76 75
43 36 48 65 60 57 86 99 94 95 93 80 78 73 65 60 62 71 79 74 64 48 56 62 77 93 100 100 100 100 100 99 96 95 92 87 82 79 76 74 74 72 65 56
52 44 74 73 71 74 80 92 94 93 84 65 63 57 51 48 28 22 23 28 26 22 38 83 89 100 100 100 100 100 97 98 97 89 78 76 73 70 68 63 54 41 23 10
96 81 82 74 76 90 97 97 94 86 68 68 67 44 32 26 20 18 19 19 22 37 99 100 100 100 100 100 100 100 99 88 75 73 70 67 63 57 46 28 12 8 7 6
92 88 68 55 65 85 99 100 99 82 74 70 37 23 21 21 22 44 82 97 100 100 100 100 100 100 100 100 99 90 75 74 72 68 62 54 39 20 10 8 6 6 6 7
86 100 92 86 100 100 100 97 97 86 66 26 15 20 30 60 90 99 100 98 100 100 100 100 100 100 99 90 78 77 75 68 62 53 34 18 10 7 6 6 7 7 7 7
100 100 99 100 100 100 100 91 68 53 30 14 39 84 99 100 100 100 100 100 100 100 100 100 99 92 82 79 74 70 65 55 35 18 10 7 7 7 7 7 7 7 8 10
100 100 100 100 100 100 91 96 82 39 21 69 100 100 100 100 100 100 100 100 100 100 98 92 83 81 76 73 69 58 38 20 10 8 8 8 8 7 7 7 9 10 10 11
100 100 100 100 100 96 98 74 23 38 96 100 100 100 100 100 100 100 100 100 98 93 88 84 80 78 74 63 44 25 13 9 8 8 9 8 8 8 9 11 11 12 16 16
65 80 92 97 99 77 38 26 75 100 100 100 100 100 100 100 100 100 98 94 89 85 84 85 79 70 50 29 16 11 10 10 10 9 8 8 10 12 13 13 17 21 26 34
51 53 48 44 37 42 82 100 100 100 100 100 100 100 100 100 96 92 88 89 91 89 82 75 55 32 18 14 11 10 11 12 10 10 10 12 15 14 16 20 25 30 35 41

GFSNGP_500_rhum_090.txt.gz
RH
9 6 19 18 52 72 88 45 48 40 51 69 83 62 58 91 96 72 100 78 98 90 84 69 52 69 76 69 38 19 14 12 7 6 6 8 10 30 62 81 77 76 80 78
87 46 19 32 30 71 59 68 58 55 58 70 74 91 73 87 100 90 73 58 99 91 87 77 48 56 63 74 64 32 17 12 6 7 7 11 23 42 57 61 61 71 74 76
83 75 100 78 12 27 56 54 59 70 68 66 76 99 98 68 65 58 56 100 66 88 88 52 47 48 62 63 52 43 21 14 10 8 23 46 45 43 56 62 51 50 57 26
93 100 99 34 58 46 60 65 58 63 70 75 78 100 87 93 51 37 50 90 98 81 53 34 49 46 42 32 32 31 29 22 12 19 42 43 44 46 45 40 44 35 23 20
100 100 91 80 69 68 73 71 83 74 73 81 79 92 95 100 99 75 38 64 89 75 35 51 52 40 36 26 27 20 22 29 30 43 46 41 39 41 37 30 23 27 35 37
98 98 96 100 100 74 81 68 97 100 87 87 88 79 90 100 96 95 73 64 77 72 58 53 42 33 29 31 30 27 21 13 20 23 24 29 40 28 18 20 25 35 41 44
99 95 96 100 98 91 72 78 90 93 67 60 71 79 100 98 98 89 96 74 62 54 63 34 33 41 47 42 35 34 33 36 37 41 40 38 40 37 37 40 46 50 54 60
100 99 96 100 100 95 79 97 80 64 77 100 100 99 92 99 99 100 97 96 98 85 74 64 58 59 63 86 59 50 44 39 38 39 42 45 46 45 45 47 48 51 58 68
98 100 100 95 79 100 100 100 95 71 92 91 96 100 99 98 89 94 99 99 98 99 98 97 96 92 86 80 69 64 64 64 65 68 67 71 72 75 79 80 81 79 77 81
35 86 100 96 100 93 85 88 92 80 90 78 99 92 100 99 97 98 99 100 94 98 95 97 94 94 97 94 84 76 79 83 85 83 82 81 83 83 80 89 93 99 100 100
28 70 96 100 91 76 69 68 100 96 73 98 99 84 88 100 99 95 99 100 98 97 97 98 98 92 93 88 86 84 84 82 82 85 84 77 76 75 81 90 99 100 100 100
44 57 76 98 99 73 68 60 89 96 95 100 100 98 100 100 96 96 100 99 99 98 90 96 99 95 91 90 84 83 81 90 90 82 77 75 76 82 88 93 96 97 96 92
48 92 64 79 79 90 71 62 66 70 78 87 87 100 100 99 99 100 99 97 100 96 97 98 94 96 96 92 95 98 100 94 85 85 84 85 87 92 96 87 75 73 77 86
50 89 55 76 78 92 76 100 97 90 100 97 94 98 99 100 99 100 86 85 100 100 100 96 94 98 97 99 98 97 92 88 85 82 84 85 83 80 80 77 73 77 79 84
47 65 79 65 87 94 98 97 90 100 100 100 96 97 95 91 92 98 99 99 99 96 94 94 99 98 99 96 87 82 80 80 83 86 70 74 84 89 91 85 82 82 84 82
77 87 63 69 81 86 98 100 96 100 98 100 97 97 100 100 100 100 100 99 97 100 99 98 98 96 95 84 79 74 70 72 81 80 87 95 97 96 93 90 88 82 71 66
100 61 56 79 78 76 65 69 91 98 98 98 99 98 99 99 100 100 100 98 96 96 97 92 90 85 51 35 44 55 74 83 100 100 100 100 94 90 87 83 71 65 63 56
100 64 52 60 68 64 39 37 42 78 97 100 100 97 97 98 97 94 91 94 94 85 67 44 33 36 30 23 55 79 84 99 100 99 94 89 87 85 74 65 63 56 51 47
95 82 62 65 64 56 34 25 33 36 55 88 100 98 96 96 99 100 87 69 39 23 20 19 19 22 27 58 92 95 96 97 90 87 86 86 77 68 65 57 52 46 32 19
48 82 70 58 49 42 33 23 47 58 64 85 95 97 95 96 93 73 41 27 22 20 21 48 89 94 94 92 92 94 92 88 87 88 80 72 69 59 54 46 30 17 9 7
36 59 66 54 44 26 28 73 89 90 97 100 98 97 97 97 67 29 21 21 25 47 88 99 96 86 94 97 93 90 93 94 83 76 71 61 55 49 30 15 9 7 7 6
54 71 74 49 48 73 72 76 84 100 100 100 99 100 100 74 19 15 37 85 98 100 100 98 97 96 94 95 99 99 89 81 74 63 58 53 31 16 10 8 7 7 7 6
81 97 99 79 88 100 100 100 100 100 100 100 100 99 68 26 23 64 100 100 100 100 100 96 97 100 100 100 92 84 75 65 61 56 33 16 11 9 8 8 8 7 7 9
98 100 100 100 100 100 100 100 100 96 100 100 100 86 36 28 80 100 100 100 100 100 100 100 100 100 94 85 77 69 65 60 34 17 12 10 9 9 9 9 8 9 11 12
100 100 100 100 100 100 100 100 100 100 100 100 78 29 44 99 100 100 100 100 100 100 100 100 94 87 80 74 71 62 36 19 13 11 10 10 10 10 10 10 12 14 15 17
100 100 100 100 99 98 98 96 98 96 74 48 62 85 100 100 100 100 100 100 100 99 94 92 84 77 74 62 38 20 14 12 12 11 11 12 11 11 11 14 17 17 18 19
86 77 64 55 60 63 61 64 53 56 75 98 100 100 100 100 100 100 100 99 98 95 87 80 76 62 38 22 16 14 13 12 12 13 13 13 12 12 16 20 20 20 20 26

GFSNGP_500_rhum_093.txt.gz
RH
5 6 11 25 20 23 37 28 36 28 38 54 60 66 100 90 69 72 83 100 95 77 69 100 95 82 72 69 66 45 36 31 19 14 13 7 6 11 12 12 34 57 82 94
3 5 6 7 18 28 12 20 30 36 30 41 55 72 77 86 69 74 100 99 74 74 79 95 100 98 61 63 67 71 58 37 20 15 12 7 6 8 11 32 47 52 61 72
3 6 11 6 12 24 16 12 11 20 31 46 45 60 74 100 85 70 75 97 100 74 70 82 91 80 58 56 54 58 56 60 49 28 16 13 9 34 54 64 60 58 57 62
7 14 37 4 79 66 51 17 13 12 32 59 60 65 67 96 94 91 81 89 86 72 93 95 80 76 48 58 56 54 46 43 40 40 35 26 23 23 52 72 60 50 49 47
22 87 18 15 90 64 55 54 39 14 16 42 62 97 74 96 97 100 94 94 79 63 86 95 92 76 48 46 46 41 34 34 31 25 34 41 50 54 61 59 41 36 36 28
46 51 38 7 53 75 80 41 62 49 33 35 74 74 64 100 98 96 94 99 90 84 100 100 100 71 58 48 43 41 40 36 34 34 35 28 30 41 40 42 43 49 40 35
26 20 13 96 100 100 100 88 86 70 60 53 64 70 83 96 94 94 82 99 97 99 100 99 84 74 65 50 50 51 55 64 60 52 46 42 39 36 36 36 41 48 53 56
92 38 47 95 98 100 100 100 100 81 69 85 83 79 83 72 92 87 98 94 98 100 100 100 99 99 88 60 53 61 89 93 88 72 64 60 60 63 69 76 76 78 79 83
100 100 100 100 95 100 99 100 100 93 67 85 73 68 79 74 89 96 99 99 97 98 98 96 84 92 99 98 97 98 95 91 90 86 83 83 82 82 88 89 88 86 82 81
37 90 100 100 100 89 97 85 100 100 95 96 82 82 66 98 83 73 100 95 100 97 96 100 100 96 86 91 97 99 99 98 97 90 91 88 93 94 92 92 86 80 77 78
43 33 39 91 98 76 73 89 99 100 90 98 100 86 88 86 99 99 99 96 98 98 96 81 84 85 86 88 100 92 96 98 99 98 95 97 97 98 92 86 84 83 82 84
41 43 32 48 53 78 50 65 86 99 85 81 88 84 87 78 92 100 99 91 84 72 70 96 89 88 99 99 98 94 89 93 99 98 98 98 98 95 87 80 77 77 81 84
49 43 37 46 59 87 46 78 81 77 86 100 90 87 92 100 84 93 90 92 83 85 100 98 92 100 99 100 100 89 80 92 97 95 96 97 88 80 75 82 83 74 80 85
51 41 32 50 54 93 53 45 80 84 75 79 95 96 95 100 99 99 100 96 90 99 100 98 95 100 100 94 89 99 97 99 98 92 87 82 78 76 78 86 85 84 83 81
47 36 32 55 80 92 70 60 95 88 81 100 73 70 90 90 98 98 100 99 99 100 100 100 99 99 100 100 98 98 100 97 91 82 72 59 57 73 82 79 79 79 77 74
46 31 26 26 100 98 94 85 100 100 100 100 100 100 94 99 83 95 100 93 92 99 100 98 98 98 99 99 99 98 93 85 47 27 28 59 74 72 72 73 76 78 75 76
38 31 29 33 61 100 97 100 100 100 95 100 96 99 99 99 100 100 100 97 99 92 100 100 100 99 99 96 83 55 33 27 24 23 65 81 74 66 71 77 74 78 80 69
34 47 72 79 82 100 100 99 97 82 65 74 93 96 99 96 99 99 100 100 100 99 99 98 98 98 87 52 30 20 26 56 77 80 73 69 74 77 76 81 83 72 60 52
36 45 79 100 90 100 100 90 73 70 53 37 58 71 88 99 100 100 100 100 100 100 99 95 79 51 30 23 30 74 90 81 74 76 79 80 82 84 83 72 61 54 49 39
44 36 50 96 100 98 100 81 74 60 39 33 46 70 83 85 96 94 87 89 96 95 90 54 28 23 29 70 91 93 86 85 84 82 81 84 84 74 63 57 52 40 21 14
44 33 30 28 90 100 98 84 63 53 47 62 81 96 100 100 100 100 99 100 94 56 24 18 43 85 94 98 97 92 87 84 82 83 86 80 68 61 56 42 21 14 10 7
30 30 27 26 41 93 92 78 61 54 64 94 91 99 100 100 100 100 100 96 58 26 21 59 93 96 98 98 95 89 87 88 90 86 75 68 62 43 21 14 10 8 7 8
22 37 59 28 44 86 86 83 72 82 96 85 98 100 100 100 100 100 96 70 42 38 72 99 100 100 98 93 91 92 93 92 83 75 68 45 20 13 10 8 8 8 9 9
61 92 100 68 67 80 87 88 82 100 100 100 97 100 100 100 100 100 80 46 45 85 100 100 100 96 94 93 93 94 91 83 71 46 20 14 11 9 8 8 9 10 10 10
100 100 100 100 100 100 100 100 100 100 100 100 100 100 100 100 100 94 63 64 99 100 100 98 95 95 95 96 95 87 75 50 23 14 12 10 9 9 10 11 11 11 11 14
100 100 100 100 100 100 100 100 100 100 100 100 100 100 98 92 91 90 94 100 100 100 97 97 99 99 98 93 82 57 28 16 12 11 10 10 10 12 13 12 11 13 17 23
100 100 100 100 100 100 100 100 100 99 86 84 91 90 88 98 100 100 100 100 100 100 100 100 99 96 89 67 38 20 14 12 11 11 11 13 14 15 13 13 15 19 25 26